Flag for France Weather past 2 weeks in Saint-Étienne, France

Now
36 °F

Clear.


Feels Like: 33 °F
Forecast: 30 / 49 °F
Wind: 3 mph from North

Location: St-Etienne Boutheon

Current Time: Dec 21, 2014 at 7:58:27 PM

Latest Report: Dec 21, 2014 at 7:30 PM


Visibility: N/A

Pressure: 30.57 "Hg

Humidity: 87%

Dew point: 32 °F

Location of Saint-ÉtienneLocation

Historic Weather in Saint-Étienne — Graph

°F

Saint-Étienne temperature yesterday

Maximum temperature yesterday: 52 °F (at 12:00 AM)
Minimum temperature yesterday: 39 °F (at 10:00 PM)
Average temperature yesterday: 45 °F

Past Weeks' High & Low Weather Summary

 TemperatureHumidityPressure
High57 °F (Dec 14, 1:30 PM)100% (Dec 16, 12:00 AM)30.60 "Hg (Dec 16, 12:00 AM)
Low30 °F (Dec 10, 1:00 AM)54% (Dec 12, 1:30 PM)29.83 "Hg (Dec 13, 3:00 AM)
Average44 °F83%30.18 "Hg
* Reported Dec 6 6:00 PM — Dec 21 6:30 PM, Saint-Étienne, Weather by CustomWeather, © 2014

Note: Actual official high and low records may vary slightly from our data, if they occured in-between our weather recording intervals... More about our weather records

Advertising

Saint-Étienne weather history for previous 24 hours

 ConditionsComfort  
Time TempWeatherWind HumidityBarometerVisibility
6:30 PM
Dec 21
41 °FPassing clouds.No wind70%30.57 "HgN/A
6:00 PM43 °FPassing clouds.3 mph66%30.57 "HgN/A
5:30 PM43 °FPassing clouds.1 mph66%30.57 "HgN/A
5:00 PM43 °FPartly sunny.6 mph71%30.57 "HgN/A
4:30 PM45 °FPartly sunny.7 mph66%30.57 "HgN/A
4:00 PM45 °FPartly sunny.8 mph66%30.57 "HgN/A
3:30 PM45 °FPartly sunny.8 mph66%30.57 "HgN/A
3:00 PM45 °FPartly sunny.3 mph66%30.57 "HgN/A
2:30 PM45 °FPartly sunny.6 mph66%30.57 "HgN/A
2:00 PM45 °FPartly sunny.5 mph66%30.57 "HgN/A
1:30 PM45 °FPassing clouds.5 mph71%30.57 "HgN/A
1:00 PM45 °FScattered clouds.6 mph76%30.60 "HgN/A
12:30 PM43 °FScattered clouds.3 mph81%30.60 "HgN/A
12:00 PM43 °FPartly sunny.1 mph81%30.60 "HgN/A
11:30 AM41 °FScattered clouds.1 mph81%30.60 "HgN/A
11:00 AM41 °FScattered clouds.5 mph81%30.60 "HgN/A
10:30 AM39 °FPartly sunny.3 mph87%30.60 "HgN/A
10:00 AM39 °FPartly sunny.2 mph87%30.60 "HgN/A
9:30 AM39 °FPartly sunny.No wind87%30.57 "HgN/A
9:00 AM37 °FPartly sunny.No wind93%30.57 "HgN/A
8:30 AM37 °FBroken clouds.No wind93%30.57 "HgN/A
8:00 AM37 °FPartly cloudy.2 mph87%30.57 "HgN/A
7:30 AM37 °FPassing clouds.1 mph87%30.57 "HgN/A
7:00 AM37 °FPassing clouds.No wind87%30.57 "HgN/A
6:30 AM36 °FPassing clouds.2 mph93%30.54 "HgN/A
6:00 AM36 °FPassing clouds.2 mph93%30.54 "HgN/A
5:30 AM36 °FPassing clouds.2 mph93%30.54 "HgN/A
5:00 AM36 °FPassing clouds.No wind87%30.54 "HgN/A
4:30 AM37 °FPassing clouds.No wind87%30.54 "HgN/A
3:30 AM37 °FOvercast.2 mph87%30.54 "HgN/A
3:00 AM37 °FOvercast.No wind87%30.54 "HgN/A
2:30 AM37 °FOvercast.2 mph87%30.54 "HgN/A
2:00 AM37 °FOvercast.1 mph87%30.54 "HgN/A
1:30 AM39 °FOvercast.5 mph81%30.54 "HgN/A
1:00 AM37 °FPassing clouds.3 mph81%30.54 "HgN/A
12:30 AM37 °FOvercast.2 mph81%30.57 "HgN/A
12:00 AM37 °FOvercast.3 mph81%30.57 "HgN/A
11:30 PM
Dec 20
39 °FPassing clouds.2 mph81%30.57 "HgN/A
11:00 PM39 °FOvercast.3 mph75%30.54 "HgN/A
10:30 PM39 °FOvercast.3 mph75%30.54 "HgN/A
10:00 PM39 °FOvercast.2 mph75%30.54 "HgN/A
9:30 PM41 °FOvercast.No wind70%30.54 "HgN/A
9:00 PM41 °FOvercast.3 mph70%30.54 "HgN/A
8:30 PM41 °FOvercast.9 mph70%30.54 "HgN/A
8:00 PM41 °FOvercast.8 mph70%30.54 "HgN/A
7:30 PM41 °FOvercast.20 mph76%30.54 "HgN/A
7:00 PM41 °FOvercast.13 mph76%30.51 "HgN/A
Weather by CustomWeather, © 2014

See weather overviewHow to use our weather pages